Location: Unspecified
(0.0000°N, 0.0000°E)
Time: 11:16:41
(UTC+00:00)

SR - Pass Details

Date: 22 November 2019
Orbit: 573 x 882 km, 66.7° (Epoch: 13 December)

Event Time Altitude Azimuth Distance (km) Brightness Sun altitude
Rises 12:47:56 0° 213° (SSW) 2,915 ? 64.8°
Reaches altitude 10° 12:50:13 10° 221° (SW) 2,047 ? 64.5°
Maximum altitude 12:54:35 41° 291° (WNW) 989 ? 63.8°
Drops below altitude 10° 12:59:19 10° 1° (N) 2,224 ? 63.0°
Sets 13:01:54 0° 8° (N) 3,199 ? 62.6°
